Weather reports worldwide

Advertisment
Palermo/Punta Raisi, Italy (16405): temperature & dewpoint: 29.06.2020 13:00:00 - 05.07.2020 13:00:00 (CEST)Palermo/Punta Raisi, Italy (16405): wind speed: 29.06.2020 13:00:00 - 05.07.2020 13:00:00 (CEST)Palermo/Punta Raisi, Italy (16405): wind direction: 29.06.2020 13:00:00 - 05.07.2020 13:00:00 (CEST)Palermo/Punta Raisi, Italy (16405): reduced air pressure: 29.06.2020 13:00:00 - 05.07.2020 13:00:00 (CEST)Palermo/Punta Raisi, Italy (16405): visibility: 29.06.2020 13:00:00 - 05.07.2020 13:00:00 (CEST)Palermo/Punta Raisi, Italy (16405): precipitation: 29.06.2020 13:00:00 - 05.07.2020 13:00:00 (CEST)
Date & Time tt [°C] td [°C] ff [km/h] ff [kn] dd ppp [hPa] vv [km] rr [mm]
05.07.2020 13:00:00 26,0 20,0 13 7 NW - 10 -
05.07.2020 12:00:00 26,0 21,0 15 8 NW - 10 -
05.07.2020 11:00:00 26,2 20,2 9 5 WNW 1015,1 10 0,0
05.07.2020 10:00:00 26,0 20,0 8 4 NW - 10 -
05.07.2020 09:00:00 26,0 20,0 5 3 N - 10 -
05.07.2020 08:00:00 25,2 19,7 9 5 N 1014,7 10 -
05.07.2020 07:00:00 24,0 20,0 8 4 N - 10 -
05.07.2020 06:00:00 24,0 20,0 9 5 NW - 10 -
05.07.2020 05:00:00 24,2 19,5 9 5 NNW 1014,2 10 0,0
05.07.2020 04:00:00 24,0 19,0 5 3 N - 10 -
05.07.2020 03:00:00 24,0 18,0 13 7 N - 10 -
05.07.2020 02:00:00 24,3 18,0 15 8 NNW 1014,8 10 -
05.07.2020 01:00:00 24,0 17,0 15 8 NNW - 10 -
05.07.2020 00:00:00 24,0 17,0 13 7 NW - 10 -
04.07.2020 23:00:00 24,3 17,5 21 11 WNW 1015,2 10 0,0
04.07.2020 22:00:00 25,0 18,0 15 8 NW - 10 -
04.07.2020 21:00:00 25,0 18,0 16 9 NW - 10 -
04.07.2020 20:00:00 24,9 18,3 21 11 NNW 1014,6 10 -
04.07.2020 19:00:00 25,0 19,0 21 11 NW - 10 -
04.07.2020 18:00:00 26,0 17,0 13 7 NNW - 10 -
04.07.2020 17:00:00 26,4 17,5 16 9 N 1015,1 10 0,0
04.07.2020 16:00:00 27,0 18,0 15 8 N - 10 -
04.07.2020 15:00:00 27,0 19,0 15 8 NNE - 10 -
04.07.2020 14:00:00 26,4 18,7 22 12 NNE 1015,2 10 -
04.07.2020 13:00:00 26,0 20,0 24 13 NNE - 10 -
04.07.2020 12:00:00 26,0 21,0 26 14 N - 10 -
04.07.2020 11:00:00 26,8 22,3 13 7 N 1014,6 10 0,0
04.07.2020 10:00:00 26,0 22,0 15 8 NNE - 10 -
04.07.2020 09:00:00 26,0 22,0 16 9 NNE - 10 -
04.07.2020 08:00:00 25,4 22,6 18 10 NNE 1014,2 10 -
04.07.2020 07:00:00 25,0 23,0 18 10 NNE - 10 -
04.07.2020 06:00:00 25,0 23,0 18 10 N - 10 -
04.07.2020 05:00:00 25,0 20,4 5 3 ESE 1013,5 10 0,0
04.07.2020 04:00:00 24,0 20,0 13 7 ENE - 10 -
04.07.2020 03:00:00 25,0 22,0 15 8 ENE - 10 -
04.07.2020 02:00:00 24,7 20,1 15 8 NE 1013,8 10 -
04.07.2020 01:00:00 25,0 22,0 18 10 ENE - 10 -
04.07.2020 00:00:00 25,0 23,0 9 5 NE - 10 -
03.07.2020 23:00:00 25,0 22,5 8 4 NE 1014,2 10 0,0
03.07.2020 22:00:00 26,0 23,0 11 6 NNE - 10 -
03.07.2020 21:00:00 26,0 23,0 11 6 N - 10 -
03.07.2020 20:00:00 25,9 22,7 15 8 N 1012,6 10 -
03.07.2020 19:00:00 26,0 23,0 15 8 NNE - 10 -
03.07.2020 18:00:00 27,0 23,0 16 9 NNE - 10 -
03.07.2020 17:00:00 26,4 22,5 16 9 N 1012,3 10 0,0
03.07.2020 16:00:00 27,0 22,0 15 8 N - 10 -
03.07.2020 15:00:00 27,0 22,0 13 7 N - 10 -
03.07.2020 14:00:00 27,0 21,9 13 7 N 1013,0 10 -
03.07.2020 13:00:00 27,0 22,0 9 5 NW - 10 -
03.07.2020 12:00:00 27,0 21,0 9 5 NW - 10 -
03.07.2020 11:00:00 26,0 21,0 11 6 WNW 1012,9 10 0,0
03.07.2020 10:00:00 26,0 21,0 5 3 WSW - 10 -
03.07.2020 09:00:00 25,0 21,0 8 4 SW - 10 -
03.07.2020 08:00:00 24,6 21,6 8 4 SW 1012,3 10 -
03.07.2020 07:00:00 24,0 22,0 9 5 WSW - 10 -
03.07.2020 06:00:00 23,0 20,0 5 3 S - 10 -
03.07.2020 05:00:00 23,1 20,5 5 3 S 1010,7 10 0,0
03.07.2020 04:00:00 23,0 21,0 5 3 SSE - 10 -
03.07.2020 03:00:00 24,0 21,0 4 2 - - 10 -
03.07.2020 02:00:00 23,8 20,9 5 3 S 1011,2 10 -
03.07.2020 01:00:00 24,0 22,0 5 3 S - 10 -
03.07.2020 00:00:00 25,0 23,0 15 8 W - 10 -
02.07.2020 23:00:00 24,6 21,2 11 6 SW 1012,0 10 0,0
02.07.2020 22:00:00 25,0 22,0 13 7 WNW - 9 -
02.07.2020 21:00:00 25,0 23,0 18 10 WNW - 9 -
02.07.2020 20:00:00 24,9 22,4 16 9 WNW 1011,1 10 -
02.07.2020 19:00:00 25,0 22,0 22 12 WNW - 10 -
02.07.2020 18:00:00 25,0 22,0 24 13 WNW - 10 -
02.07.2020 17:00:00 25,8 21,9 18 10 WNW 1010,9 10 0,0
02.07.2020 16:00:00 26,0 22,0 21 11 WNW - 10 -
02.07.2020 15:00:00 26,0 21,0 24 13 WNW - 10 -
02.07.2020 14:00:00 25,2 21,4 22 12 WNW 1012,1 10 -
02.07.2020 13:00:00 26,0 22,0 22 12 WNW - 10 -
02.07.2020 12:00:00 26,0 23,0 18 10 NW - 10 -
02.07.2020 11:00:00 25,5 22,8 18 10 NW 1012,0 10 0,0
02.07.2020 10:00:00 26,0 20,0 11 6 NW - 10 -
02.07.2020 09:00:00 26,0 18,0 11 6 NNE - 10 -
02.07.2020 08:00:00 25,8 19,2 9 5 NE 1011,3 10 -
02.07.2020 07:00:00 24,0 19,0 5 3 NE - 10 -
02.07.2020 06:00:00 24,0 19,0 5 3 NE - 10 -
02.07.2020 05:00:00 23,6 16,5 4 2 - 1011,1 10 0,0
02.07.2020 04:00:00 24,0 20,0 11 6 SW - 10 -
02.07.2020 03:00:00 24,0 16,0 8 4 E - 10 -
02.07.2020 02:00:00 24,1 15,9 8 4 E 1011,5 10 -
02.07.2020 01:00:00 25,0 18,0 5 3 SE - 10 -
02.07.2020 00:00:00 26,0 19,0 9 5 SW - 10 -
01.07.2020 23:00:00 25,5 20,8 15 8 SW 1012,0 10 0,0
01.07.2020 22:00:00 26,0 24,0 11 6 WSW - 10 -
01.07.2020 21:00:00 27,0 20,0 2 1 - - 10 -
01.07.2020 20:00:00 28,1 19,4 15 8 NE 1011,9 10 -
01.07.2020 19:00:00 30,0 20,0 24 13 ENE - 10 -
01.07.2020 18:00:00 31,0 18,0 26 14 ENE - 10 -
01.07.2020 17:00:00 31,6 17,0 22 12 ENE 1012,4 10 0,0
01.07.2020 16:00:00 32,0 20,0 21 11 ENE - 10 -
01.07.2020 15:00:00 30,0 19,0 24 13 ENE - 10 -
01.07.2020 14:00:00 29,9 19,4 24 13 NE 1013,2 10 -
01.07.2020 13:00:00 29,0 20,0 16 9 NE - 10 -
01.07.2020 12:00:00 27,0 22,0 9 5 N - 10 -
01.07.2020 11:00:00 26,0 21,2 8 4 WNW 1014,0 10 0,0
01.07.2020 10:00:00 26,0 21,0 9 5 W - 10 -
01.07.2020 09:00:00 25,0 20,0 9 5 WSW - 10 -
01.07.2020 08:00:00 24,8 20,0 8 4 WSW 1013,7 10 -
01.07.2020 07:00:00 23,0 19,0 5 3 S - 10 -
01.07.2020 06:00:00 23,0 19,0 2 1 - - 10 -
01.07.2020 05:00:00 22,7 19,2 2 1 - 1012,6 10 0,0
01.07.2020 04:00:00 23,0 18,0 9 5 E - 10 -
01.07.2020 03:00:00 23,0 21,0 8 4 NE - 10 -
01.07.2020 02:00:00 23,8 18,1 0 0 N 1013,1 - -
01.07.2020 01:00:00 24,0 20,0 4 2 - - 10 -
01.07.2020 00:00:00 24,0 20,0 4 2 SSE - 10 -
30.06.2020 23:00:00 25,0 21,1 11 6 SW 1013,9 10 0,0
30.06.2020 22:00:00 26,0 20,0 2 1 - - 10 -
30.06.2020 21:00:00 27,0 19,0 18 10 ENE - 10 -
30.06.2020 20:00:00 27,2 18,7 28 15 ENE 1012,8 10 -
30.06.2020 19:00:00 28,0 19,0 29 16 NE - 10 -
30.06.2020 18:00:00 29,0 18,0 34 18 ENE - 10 -
30.06.2020 17:00:00 29,7 17,1 34 18 ENE 1013,0 10 0,0
30.06.2020 16:00:00 30,0 15,0 34 18 ENE - 10 -
30.06.2020 15:00:00 29,0 17,0 29 16 ENE - 10 -
30.06.2020 14:00:00 29,1 17,0 28 15 ENE 1013,8 10 -
30.06.2020 13:00:00 28,0 20,0 26 14 NE - 10 -
30.06.2020 12:00:00 28,0 21,0 21 11 NE - 10 -
30.06.2020 11:00:00 27,9 17,5 21 11 ENE 1014,5 10 0,0
30.06.2020 10:00:00 27,0 18,0 16 9 ENE - 10 -
30.06.2020 09:00:00 25,0 20,0 4 2 - - 10 -
30.06.2020 08:00:00 24,1 20,3 2 1 - 1014,6 10 -
30.06.2020 07:00:00 21,0 19,0 5 3 S - 10 -
30.06.2020 06:00:00 21,0 19,0 4 2 - - 10 -
30.06.2020 05:00:00 21,5 19,1 4 2 S 1013,6 10 0,0
30.06.2020 04:00:00 22,0 19,0 4 2 S - 10 -
30.06.2020 03:00:00 22,0 19,0 5 3 SSW - 10 -
30.06.2020 02:00:00 22,7 19,5 4 2 SSW 1013,8 10 -
30.06.2020 01:00:00 23,0 20,0 5 3 S - 10 -
30.06.2020 00:00:00 24,0 21,0 9 5 NE - 10 -
29.06.2020 23:00:00 25,0 21,0 15 8 NE - 10 -
29.06.2020 22:00:00 25,0 20,0 16 9 NE - 10 -
29.06.2020 21:00:00 26,0 20,0 21 11 NE - 10 -
29.06.2020 20:00:00 25,9 20,8 22 12 NE 1013,9 10 -
29.06.2020 19:00:00 27,0 20,0 26 14 NE - 10 -
29.06.2020 18:00:00 27,0 21,0 26 14 NE - 10 -
29.06.2020 17:00:00 26,6 20,7 29 16 NE 1014,0 10 0,0
29.06.2020 16:00:00 27,0 21,0 34 18 NE - 10 -
29.06.2020 15:00:00 27,0 21,0 31 17 NE - 10 -
29.06.2020 14:00:00 26,6 20,8 29 16 NE 1014,7 10 -
29.06.2020 13:00:00 26,0 21,0 31 17 NE - 10 -

tt = temperature
td = dewpoint
ff = wind speed
dd = wind direction
ppp = reduced air pressure
vv = visibility
rr = precipitation

Next stations